#timestamp,LO_Frequency,Hit,StdDev 
1560639615.8,286047001.0,N
1560639635.7,286047001.0,N
1560639655.5,286047000.6,N
1560639675.3,286046998.1,N
1560639695.2,286046996.6,N
1560639715.0,286046998.7,N
1560639715.9,286046998.7,N
1560639735.7,286047000.6,N
1560639755.6,286047000.7,N
1560639775.4,286046999.9,N
1560639795.2,286047002.5,N
1560639815.1,286046999.9,N
1560639816.0,286046999.9,N
1560639835.8,286046999.9,N
1560639855.6,286047000.4,N
1560639875.5,286047002.6,N
1560639895.3,286047003.3,N
1560639915.2,286047002.6,N
1560639935.9,286047001.0,N
1560639955.7,286047000.5,N
1560639975.6,286047000.0,N
1560640025.4,286047005.8,E
1560640035.3,286047001.7,N
1560640055.2,286046996.7,P
1560640075.9,286046997.2,N
1560640095.7,286046997.5,N
1560640115.6,286046997.2,N
1560640135.4,286046996.5,N
1560640155.2,286046996.6,N
1560640175.1,286046998.1,N
1560640176.0,286046998.1,N
1560640195.8,286047000.0,N
1560640215.6,286047000.4,N
1560640235.5,286047001.8,N
1560640255.3,286047001.8,N
1560640275.1,286046999.7,N
1560640295.9,286047002.6,N
1560640315.7,286047000.5,N
1560640335.5,286047000.1,N
1560640355.4,286046999.7,N
1560640375.2,286047000.0,N
1560640395.0,286047000.2,N
1560640395.9,286047000.2,N
1560640415.8,286047000.5,N
1560640435.6,286046999.7,N
1560640455.4,286047004.3,N
1560640475.3,286047003.0,N
1560640495.1,286047006.5,Y
1560640515.8,286047010.6,P
1560640535.7,286047009.9,N
1560640555.5,286047011.2,N
1560640575.3,286047010.9,N
1560640595.2,286047011.1,N
1560640615.0,286047012.3,N
1560640615.9,286047012.3,Y
1560640635.7,286047002.8,P
1560640655.6,286047002.0,N
1560640675.4,286047002.0,N
1560640695.2,286047004.3,N
1560640715.1,286047002.1,N
1560640716.0,286047002.1,N
1560640735.8,286047004.1,N
1560640755.6,286047004.2,N
1560640775.5,286047006.0,N
1560640795.3,286047004.8,N
1560640815.1,286047008.9,Y
1560640835.9,286047001.7,P
1560640855.7,286047002.4,N
1560640875.5,286047002.2,N
1560640895.4,286047003.6,Y
1560640915.2,286046999.9,P
1560640935.0,286047002.1,N
1560640935.9,286047002.1,N
1560640955.8,286047001.6,N
1560640975.6,286047001.3,N
1560640995.4,286047000.0,N
1560641015.3,286047000.4,N
1560641035.1,286046998.2,N
1560641055.8,286047001.9,N
1560641075.7,286047002.8,N
1560641095.5,286046999.9,N
1560641115.3,286047001.4,N
1560641135.2,286047000.7,N
1560641155.0,286047001.0,N
1560641155.9,286047001.0,N
1560641175.7,286046999.9,N
1560641195.6,286047000.0,N
1560641215.4,286047000.7,N
1560641235.2,286047001.0,N
1560641255.1,286047000.8,N
1560641256.0,286047000.8,N
1560641275.8,286047001.5,N
1560641295.7,286047004.8,Y
1560641315.5,286047004.8,P
1560641335.3,286047006.8,P
1560641355.2,286047006.7,N
1560641375.9,286047008.2,Y
1560641395.7,286047006.0,P
1560641415.6,286047005.6,P
1560641435.4,286047003.2,P
1560641455.2,286047001.3,N
1560641475.1,286047000.1,N
1560641476.0,286047000.1,N
1560641495.8,286047000.8,N
1560641515.6,286046998.9,N
1560641535.5,286046998.6,N
1560641555.3,286046999.1,N
1560641575.1,286046996.7,N
1560641595.9,286046997.7,N
1560641615.7,286046997.5,N
1560641635.5,286046996.6,N
1560641655.4,286046997.4,N
1560641675.2,286046997.0,N
1560641695.0,286046994.9,N
1560641695.9,286046994.9,N
1560641715.8,286046997.8,N
1560641735.6,286046997.8,N
1560641755.4,286046996.7,N
1560641775.3,286046995.4,N
1560641795.1,286046996.0,N
1560641796.0,286046996.0,N
1560641815.8,286046996.0,N
1560641835.7,286046995.7,N
1560641855.5,286046993.6,N
1560641875.3,286046994.1,N
1560641895.2,286046994.1,N
1560641915.9,286046994.7,N
1560641935.7,286046991.9,N
1560641955.6,286046992.3,N
1560641975.4,286046990.1,Y
1560641995.2,286046995.6,P
1560642015.1,286046996.1,P
1560642016.0,286046996.1,P
1560642035.8,286046993.3,Y
1560642055.6,286046996.6,P
1560642075.5,286046997.5,P
1560642095.3,286046996.7,P
1560642115.1,286046999.1,N
1560642135.9,286046996.8,Y
1560642155.7,286046998.9,P
1560642175.5,286046998.6,N
1560642225.4,286046999.4,E
1560642235.3,286046998.8,N
1560642255.1,286046999.0,P
1560642275.9,286046999.5,P
1560642295.7,286046996.7,Y
1560642315.5,286046999.0,P
1560642335.4,286046999.1,P
1560642355.2,286046998.8,P
1560642375.0,286046999.3,Y
1560642375.9,286046999.3,P
1560642395.8,286047000.0,N
1560642415.6,286047000.4,N
1560642435.4,286046998.5,N
1560642455.3,286047000.7,N
1560642475.1,286047000.5,N
1560642495.8,286047000.9,N
1560642515.7,286047002.5,Y
1560642535.5,286047001.0,P
1560642555.3,286047002.4,P
1560642575.2,286047001.4,N
1560642595.0,286047001.8,N
1560642595.9,286047001.8,N
1560642615.7,286047001.3,N
1560642635.6,286047003.5,Y
1560642655.4,286047001.7,P
1560642675.2,286047002.3,P
1560642695.1,286047002.3,P
1560642696.0,286047002.3,Y
1560642715.8,286046998.4,P
1560642735.6,286046999.5,N
1560642755.5,286046997.5,N
1560642775.3,286046995.0,Y
1560642795.1,286046995.1,P
1560642815.9,286046995.4,N
1560642835.7,286046995.6,N
1560642855.5,286046995.8,N
1560642875.4,286046993.7,Y
1560642895.2,286046999.5,P
1560642915.0,286046996.7,N
1560642916.0,286046996.7,N
1560642935.8,286046995.6,Y
1560642955.6,286046998.9,P
1560642975.5,286046996.6,P
1560642995.3,286046996.8,P
1560643015.1,286046997.6,N
1560643035.9,286046996.5,Y
1560643055.7,286047002.5,P
1560643075.5,286047001.7,N
1560643095.4,286047000.0,N
1560643115.2,286047001.0,N
1560643135.0,286046999.9,N
1560643135.9,286046999.9,N
1560643155.8,286047001.7,N
1560643175.6,286047004.1,N
1560643195.4,286047000.3,N
